Regional Weather Roundup
Issued by NWS

Home | Current Version | Previous Version | Graphics & Text | Print | Product List | Glossary On
Versions: 1 2 3 4 5 6 7 8 9 10 11 12 13 14 15 16 17 18 19 20 21 22 23 24 25 26 27 28 29 30 31 32 33 34 35 36 37 38 39 40 41 42 43 44 45 46 47 48 49 50
000
ASUS43 KLSX 120307
RWRMO

WEATHER SUMMARY FOR MISSOURI
NATIONAL WEATHER SERVICE SPRINGFIELD MO
900 PM CST MON DEC 11 2017

NOTE: "FAIR" INDICATES FEW OR NO CLOUDS BELOW 12,000 FEET WITH NO
       SIGNIFICANT WEATHER AND/OR OBSTRUCTIONS TO VISIBILITY.
       CURRENT SKY AND/OR WEATHER CONDITIONS ARE NOT AVAILABLE FOR
       CHILLICOTHE AND FARMINGTON.

MOZ001>031-035>038-043-044-053-054-120400-
...NORTHERN AND WESTERN MISSOURI...

CITY           SKY/WX    TMP DP  RH WIND       PRES   REMARKS
KANSAS CTY INT CLOUDY    40  27  59 N18G30    30.20R
KANSAS C DTWN  MOCLDY    43  26  51 NW25G36   30.19R
LEE`S SUMMIT   CLOUDY    43  29  57 NW29G44   30.17R
ST JOSEPH      MOCLDY    38  27  64 N16G28    30.23R WCI  29
CHILLICOTHE      N/A     38  27  64 NW13G29   30.17R WCI  30
KIRKSVILLE     CLOUDY    36  32  85 NW15G26   30.09R WCI  27

$$
MOZ066>068-077>081-088>096-101>105-120400-
...SOUTHWEST MISSOURI...

CITY           SKY/WX    TMP DP  RH WIND       PRES   REMARKS
SPRINGFIELD    PTCLDY    45  28  51 NW14      30.08R
JOPLIN         PTCLDY    47  29  49 NW15G29   30.16R
BRANSON        CLOUDY    48  25  40 NW13G18   30.09R

$$
MOZ032>034-039>042-045>050-055>058-069>072-120400-
...CENTRAL MISSOURI...

CITY           SKY/WX    TMP DP  RH WIND       PRES   REMARKS
COLUMBIA       CLOUDY    45  33  63 NW23      30.05R
JEFFERSON CITY CLOUDY    47  32  56 NW17G30   30.06R
ROLLA          CLOUDY    46  33  60 NW13G25   30.02R
SEDALIA        CLOUDY    44  33  65 NW26G39   30.12R
WHITEMAN AFB   CLOUDY    44  31  61 NW23G35   30.07R
WARRENSBURG    CLOUDY    43  30  61 NW21G33   30.13R
OSAGE BEACH    CLOUDY    48  33  56 NW14      30.06R

$$
MOZ051-052-059>065-120400-
...EAST CENTRAL MISSOURI...

CITY           SKY/WX    TMP DP  RH WIND       PRES   REMARKS
ST LOUIS INTL  CLOUDY    46  34  62 NW21G31   29.97R
SPIRIT OF STL  CLOUDY    47  34  60 NW15G29   29.98R
ST CHARLES     CLOUDY    46  33  60 NW23G32   29.96R

$$
MOZ072>076-082>087-097>100-106>115-120400-
...SOUTH CENTRAL AND SOUTHEAST MISSOURI...

CITY           SKY/WX    TMP DP  RH WIND       PRES   REMARKS
CAPE GIRARDEAU CLOUDY    49  27  42 NW9       29.95R
FARMINGTON     CLOUDY    48  31  51 NW18G28   29.96R
POPLAR BLUFF   CLOUDY    52  26  36 NW16G28   29.98R
WEST PLAINS    CLOUDY    48  27  44 NW16G25   30.03R

$$



USA.gov is the U.S. government's official web portal to all federal, state and local government web resources and services.